Miscellaneous Local Product
Issued by NWS Hastings, NE

Home | Current Version | Previous Version | Text Only | Print | Product List | Glossary Off
Versions: 1 2 3 4 5 6 7 8 9 10 11 12 13 14 15 16 17 18 19 20 21 22 23 24 25 26 27 28 29 30 31 32 33 34 35 36 37 38 39 40 41 42 43 44 45 46 47 48 49 50

000
AXUS43 KGID 041002
MISGRI

GID CWA HOURLY WEATHER ROUNDUP
NATIONAL WEATHER SERVICE HASTINGS NE
400 AM CST SUN DEC 04 2016

NOTE: "FAIR" INDICATES FEW OR NO CLOUDS BELOW 12,000 FEET WITH NO
SIGNIFICANT WEATHER AND/OR OBSTRUCTIONS TO VISIBILITY.

...SOUTH CENTRAL NEBRASKA...

CITY           SKY/WX    TMP DP  RH WIND       PRES   REMARKS
GRAND ISLAND   CLEAR     31  31 100 W12       29.98F WCI  22
HASTINGS       CLOUDY    32  31  96 W12       30.00F WCI  23
KEARNEY        CLOUDY    30  28  93 W9        29.99S WCI  22
ORD            MOCLDY    26  23  88 SW3       29.95F
YORK           CLOUDY    32  32 100 W12       29.99F WCI  23
AURORA         CLOUDY    32  32 100 W7        29.98F WCI  26
LEXINGTON      FOG       26  25  96 NW5       29.98F VSB 1   WCI  20
HOLDREGE       CLOUDY    32  31  97 W8        29.99F FOG     WCI  25
HEBRON         CLOUDY    32  32  99 CALM      30.01F

...NEBRASKA PANHANDLE...

CITY           SKY/WX    TMP DP  RH WIND       PRES   REMARKS
CHADRON        CLOUDY    26  16  65 SW9       29.98S WCI  17
ALLIANCE       CLEAR     17  12  80 W13       29.98R WCI   4
SCOTTSBLUFF    CLEAR     22  13  68 NW5       30.01S WCI  16
SIDNEY         CLEAR     22  13  68 W14       30.01S WCI   9

...WESTERN AND NORTH CENTRAL NEBRASKA...

CITY           SKY/WX    TMP DP  RH WIND       PRES   REMARKS
VALENTINE      CLEAR     22  17  81 SW8       29.93S WCI  12
AINSWORTH      CLEAR     27  22  81 W7        29.92S WCI  20
ONEILL         CLEAR     29  26  90 SW7       29.92F WCI  22
BROKEN BOW     MOCLDY    30  25  81 CALM      29.95F
IMPERIAL       CLEAR     25  15  66 W13       30.01S WCI  14
NORTH PLATTE   CLEAR     20  16  84 W8        29.99S WCI  10
MCCOOK         CLEAR     23  18  81 SW13      30.01F WCI  11

...EASTERN NEBRASKA...

CITY           SKY/WX    TMP DP  RH WIND       PRES   REMARKS
NORFOLK        PTCLDY    32  30  92 SW6       29.94F WCI  26
SO SIOUX CITY  CLOUDY    35  34  96 S3        29.98F
TEKAMAH        CLOUDY    33  31  92 SW6       30.00F WCI  28
COLUMBUS       CLOUDY    34  30  86 W6        29.98F WCI  29
ALBION         CLEAR     32  30  92 W3        29.95F
OMAHA EPPLEY   CLOUDY    35  31  85 SW3       30.01F
OFFUTT AFB     CLOUDY    34  34 100 SW5       30.01F WCI  30
MILLARD        CLOUDY    34  32  92 CALM      30.01F
LINCOLN        CLOUDY    33  32  96 W6        30.03F WCI  28
NEBRASKA CITY  DRIZZLE   36  36 100 SW7       30.01F WCI  30
BEATRICE       CLOUDY    33  33  99 W8        30.01F WCI  26
FALLS CITY     RAIN      39  39 100 SW9       30.03F WCI  33

...NORTHERN KANSAS...

CITY           SKY/WX    TMP DP  RH WIND       PRES   REMARKS
GOODLAND       CLEAR     21  13  71 W13       30.02F WCI   9
HILL CITY      CLEAR     29  27  92 W5        30.03S WCI  24
NORTON         MOSUNNY   28  21  74 W10       30.00F WCI  19
PHILLIPSBURG   PTCLDY    32  32 100 W7        30.02F WCI  26
SMITH CENTER   CLOUDY    30  30 100 W3        30.02F FOG
BELOIT         CLOUDY    30  30 100 W8        30.03F VSB 3/4 WCI  23
HAYS           CLOUDY    31  30  96 W7        30.03F FOG     WCI  24
RUSSELL        PTCLDY    31  31 100 W8        30.01F FOG     WCI  23
CONCORDIA      FOG       32  32 100 W10       30.03F VSB 1/2 WCI  24
SALINA         CLOUDY    40  38  93 CALM      30.04F
TOPEKA         LGT RAIN  40  38  93 CALM      30.04S FOG



USA.gov is the U.S. government's official web portal to all federal, state and local government web resources and services.